Location: Rybnik
(50.1167°N, 18.5333°E)
Time: 19:51:46
(UTC+01:00)

ISS - Visible Passes

Search period start: 24 March 2023 00:00
Search period end: 03 April 2023 01:00
Orbit: 414 x 422 km, 51.6° (Epoch: 24 March)

Date Brightness Start Highest point End Pass type
(mag) Time Alt. Az. Time Alt. Az. Time Alt. Az.
24 Mar -3.6 18:42:57 10° W 18:46:17 70° N 18:49:38 10° ENE visible
24 Mar -3.3 20:19:52 10° WNW 20:22:45 62° NW 20:22:45 62° NW visible
25 Mar -3.6 19:31:56 10° WNW 19:35:17 69° N 19:36:46 30° E visible
25 Mar -1.0 21:08:47 10° WNW 21:09:42 17° W 21:09:42 17° W visible
26 Mar -3.5 19:43:58 10° W 19:47:18 65° N 19:50:38 10° E visible
26 Mar -3.3 21:20:48 10° WNW 21:23:41 57° WSW 21:23:41 57° WSW visible
27 Mar -3.8 20:32:49 10° WNW 20:36:11 87° SSW 20:37:38 31° ESE visible
27 Mar -0.9 22:09:53 10° W 22:10:34 14° W 22:10:34 14° W visible
28 Mar -3.7 19:44:48 10° WNW 19:48:09 78° N 19:51:31 10° E visible
28 Mar -2.6 21:21:41 10° W 21:24:30 34° SW 21:24:30 34° SW visible
29 Mar -3.3 20:33:34 10° WNW 20:36:50 50° SSW 20:38:26 25° SE visible
30 Mar -3.6 19:45:27 10° WNW 19:48:48 69° SSW 19:52:07 10° ESE visible
30 Mar -1.6 21:22:49 10° W 21:25:08 17° SW 21:25:19 17° SW visible
31 Mar -2.0 20:34:22 10° W 20:37:11 25° SW 20:39:17 14° SSE visible
02 Apr -1.0 20:35:51 10° WSW 20:37:13 12° SW 20:38:36 10° SSW visible
